{"data":{"norad_id":66375,"intl_designator":"2025-254AD","name":"STARLINK-35826","alt_names":[],"object_type":"PAYLOAD","status":"ACTIVE","operator":null,"country":"US","launch_date":"2025-11-06","launch_site_code":"AFWTR","launch_vehicle":null,"mission":null,"orbit_class":"UNKNOWN","rcs_meters":null,"size_class":null,"mass_kg":null,"dimensions":null,"purposes":["comms"],"wikipedia_slug":null,"has_3d_model":false,"image_url":null,"decayed_at":null,"tle_current":{"epoch":"2026-05-24T23:06:40.226112Z","epoch_age_seconds":75302,"freshness":"FRESH","line1":"1 66375U 25254AD  26144.96296558  .00015606  00000+0  53793-3 0  9999","line2":"2 66375  53.1577 235.2705 0001201  87.9143 272.1995 15.30199116 30696","mean_motion":15.30199116,"eccentricity":0.0001201,"inclination_deg":53.1577,"raan_deg":235.2705,"arg_perigee_deg":87.9143,"mean_anomaly_deg":272.1995,"bstar":0.00053793,"rev_number":3069,"period_min":94.105400071346,"perigee_km":474.39462098472,"apogee_km":476.04079678579,"semimajor_km":6853.3547088853,"source":"CELESTRAK","updated_at":"2026-05-25T13:38:21.199634Z"}}}